星链-32693 (STARLINK-32693)

导读 | 豆包AI

STARLINK-32693是美国SpaceX星链(Starlink)项目的低地球轨道通信卫星,于2024年12月29日发射,属于星链二代星座部署批次。该卫星运行在近地轨道,配备先进相控阵天线与推进系统,支持星间链路,为全球提供高速低时延卫星互联网服务,可覆盖偏远地区,同时支持航空、海事及应急通信等应用,是星链大规模全球组网的重要组成部分。

Basic Information
目录编号:
62437
目录名称:
STARLINK-32693
国际标识:
2024-251F
轨道中心:
EARTH
卫星名称:
星链-32693
卫星全名:
星链-32693 (STARLINK-32693)
卫星状态:
在轨 (已飞行441 天)
发射日期:
2024-12-29 UTC
国别 :
美国 (US)
星等 :
--
Orbit Information
数据来源 国际轨道数据 AOE轨道数据
星历时间 2026-03-15T05:40:13+0800
7小时前
查看轨道信息
2026-03-12T22:00:00+0800
2天前
查看轨道信息
半长轴 6853.332km 6853.394km
偏心率 0.0000781 0.0001629
轨道倾角 53.161° 53.157°
近地点辐角 113.540° 49.884°
升交点赤经 308.384° 319.163°
平近点角 246.569° 125.119°
近地点 474.659km 474.14km
远地点 475.731km 476.374km
周期 94.105分钟 94.106分钟
每日圈数 15.30207 15.30186
Detailed Information
固有亮度:
5
最大亮度:
2.5
卫星平台:
Starlink V1.0
覆盖范围:
全球
运营商:
太空探索技术公司
运营商所在国:
美国
制造商(研发单位):
太空探索技术公司
制造商所在国:
美国
使用方式:
暂无
Satellite Introduction
Starlink 计划是 SpaceX 推出的全球卫星互联网项目,通过发射低轨道卫星,为全球尤其是偏远地区提供高速、低延迟的互联网服务。自 2019 年起,Starlink 已部署数千颗卫星,旨在缩小全球数字鸿沟,推动互联网普及。该项目还为军事、航空等行业提供通信支持,带来广泛经济效益。
2D Orbit Map
3D Orbit Map
Orbit Altitude Analysis Chart
Orbit Inclination Analysis Chart
Orbit Comprehensive Analysis Chart
View Comprehensive Chart